Location: Maiden
(35.5760°N, 81.2120°W)
Time: 02:32:37
(UTC-04:00)

A-11 Canister half - Pass Details

Date: 12 August 2020
Orbit: 1527 x 1682 km, 47.3° (Epoch: 25 September)

Event Time Altitude Azimuth Distance (km) Brightness Sun altitude
Rises 20:20:02 0° 300° (WNW) 4,910 14.0 -1.4°
Reaches altitude 10° 20:23:31 10° 293° (WNW) 3,903 13.3 -2.1°
Maximum altitude 20:32:19 37° 230° (SW) 2,323 10.3 -3.8°
Drops below altitude 10° 20:40:53 10° 167° (SSE) 3,783 10.7 -5.4°
Sets 20:44:14 0° 159° (SSE) 4,743 11.2 -6.0°
